Tracking 34142 objects as of 18-May-2026
HD Live streaming from Space Station
objects crossing your sky now

AETHER-8

Track AETHER-8 now!
10-day predictions


NORAD ID: 67379
Int'l Code: 2026-004S
Perigee: 608.6 km
Apogee: 614.4 km
Inclination: 97.8 °
Period: 96.8 minutes
Semi major axis: 6982 km
RCS: Unknown
Launch date: January 11, 2026
Source: Canada (CA)
Launch site: AIR FORCE WESTERN TEST RANGE (AFWTR)
Your satellite tracking list
Your tracking list is empty




NASA's NSSDC Master Catalog

Two Line Element Set (TLE):
1 67379U 26004S   26137.71482579  .00000411  00000-0  50818-4 0  9998
2 67379  97.8016 136.7982 0004151 219.4466 140.6448 14.87935222 18755
Source of the keplerian elements: AFSPC